logo
Rechercher aéroport 
image banner adimage banner adimage banner ad
image banner ad

IA90 - Humboldt County Memorial Hospital

Situé à Humboldt, United States

ICAO - IA90, IATA -

Données fournies par Airmate  

Information générale

Coordonnées: N42°43'59" W94°13'52"
Élévation : 1102 feet MSL.
Variation magnétique : 04° East
Voir autres Aéroports à Iowa

Données opérationnelles

Special qualification required
Heure actuelle UTC:
Heure actuelle locale:
Météo à : KFOD - Fort Dodge Rgnl ( 20 km )
METAR: KFOD 261456Z AUTO 31010G16KT 290V360 10SM CLR 15/02 A3013 RMK AO2 SLP218 T01500022 53010
TAF: KFOD 261136Z 2612/2712 31004KT P6SM SKC FM261500 32011G18KT P6SM SKC FM270000 34005KT P6SM SKC
Voir NOTAMs / SUP AIP / TFR affectant cet aéroport [VIEW]
Fréquences de communication: [VIEW]

Pistes:

Coordonnées de l'aéroport

Adresse: Humboldt United States

Vue satellite de IA90